Location: Buch
(49.7331°N, 12.1098°E)
Time: 23:12:46
(UTC+00:00)

ERS-1 Rocket - Pass Details

Date: 12 May 2021
Orbit: 753 x 757 km, 98.4° (Epoch: 23 June)

Event Time Altitude Azimuth Distance (km) Brightness Sun altitude
Exits shadow 19:50:10 12° 128° (SE) 2,172 4.7 -9.1°
Maximum altitude 19:54:25 36° 65° (ENE) 1,189 3.8 -9.6°
Drops below altitude 10° 19:59:00 10° 360° (N) 2,295 6.2 -10.2°
Sets 20:01:27 0° 352° (N) 3,226 7.2 -10.4°
